TimeAKST,TemperatureF,Dew PointF,Humidity,Sea Level PressureIn,VisibilityMPH,Wind Direction,Wind SpeedMPH,Gust SpeedMPH,PrecipitationIn,Events,Conditions,WindDirDegrees,DateUTC
12:16 AM,41.0,41.0,100,28.67,2.5,ENE,24.2,34.5,0.01,Rain,Light Rain,70,2012-12-30 09:16:00
12:25 AM,41.0,41.0,100,28.67,4.0,ENE,26.5,35.7,0.01,Rain,Light Rain,70,2012-12-30 09:25:00
12:49 AM,41.0,41.0,100,28.65,2.5,ENE,23.0,33.4,0.04,Rain,Rain,70,2012-12-30 09:49:00
12:53 AM,41.0,41.0,100,28.65,2.5,ENE,27.6,35.7,0.04,Rain,Light Rain,70,2012-12-30 09:53:00
1:00 AM,42.8,41.0,93,28.64,3.0,ENE,27.6,39.1,0.01,Rain,Rain,70,2012-12-30 10:00:00
1:29 AM,42.8,41.0,93,28.62,4.0,ENE,21.9,29.9,0.04,Rain,Rain,70,2012-12-30 10:29:00
1:34 AM,42.8,41.0,93,28.62,4.0,ENE,24.2,31.1,0.06,Rain,Rain,70,2012-12-30 10:34:00
1:53 AM,41.0,39.9,96,28.62,4.0,East,29.9,36.8,0.09,Rain,Rain,80,2012-12-30 10:53:00
2:15 AM,41.0,39.2,93,28.61,3.0,East,32.2,40.3,0.05,Rain,Rain,90,2012-12-30 11:15:00
2:22 AM,41.0,39.2,93,28.61,3.0,East,31.1,38.0,0.07,Rain,Light Rain,90,2012-12-30 11:22:00
2:35 AM,41.0,39.2,93,28.61,5.0,East,34.5,43.7,0.07,Rain,Light Rain,90,2012-12-30 11:35:00
3:53 AM,39.9,37.9,93,28.57,5.0,East,23.0,38.0,0.05,Rain,Light Rain,80,2012-12-30 12:53:00
4:40 AM,39.2,39.2,100,28.52,4.0,East,35.7,43.7,0.01,Rain,Light Rain,90,2012-12-30 13:40:00
4:53 AM,39.9,37.9,93,28.52,6.0,East,36.8,42.6,0.02,Rain,Light Rain,90,2012-12-30 13:53:00
5:31 AM,39.2,37.4,93,28.49,5.0,East,28.8,36.8,0.02,Rain,Light Rain,90,2012-12-30 14:31:00
5:41 AM,39.2,37.4,93,28.49,4.0,East,25.3,-,0.03,Rain,Light Rain,90,2012-12-30 14:41:00
5:53 AM,39.0,39.0,100,28.48,4.0,East,23.0,-,0.03,Rain,Light Rain,90,2012-12-30 14:53:00
6:26 AM,39.2,39.2,100,28.47,2.5,East,27.6,35.7,0.04,Rain,Light Rain,100,2012-12-30 15:26:00
6:53 AM,39.9,39.0,97,28.48,2.5,East,26.5,-,0.04,Rain,Light Rain,100,2012-12-30 15:53:00
7:04 AM,39.2,39.2,100,28.48,3.0,ESE,26.5,33.4,0.00,Rain,Light Rain,110,2012-12-30 16:04:00
7:23 AM,39.2,39.2,100,28.48,6.0,ESE,25.3,33.4,0.01,Rain,Light Rain,110,2012-12-30 16:23:00
7:40 AM,39.2,39.2,100,28.49,2.5,ESE,24.2,-,0.02,Rain,Light Rain,110,2012-12-30 16:40:00
7:53 AM,39.0,39.0,100,28.49,3.0,ESE,23.0,31.1,0.02,Rain,Light Rain,110,2012-12-30 16:53:00
8:53 AM,39.0,39.0,100,28.52,3.0,ESE,23.0,-,0.04,Rain,Light Rain,110,2012-12-30 17:53:00
9:53 AM,39.9,39.0,97,28.52,3.0,ESE,26.5,-,0.04,Rain,Light Rain,110,2012-12-30 18:53:00
10:04 AM,39.2,39.2,100,28.53,2.0,ESE,24.2,-,0.00,Rain,Light Rain,110,2012-12-30 19:04:00
10:37 AM,39.2,39.2,100,28.56,3.0,ESE,20.7,-,0.02,Rain,Light Rain,120,2012-12-30 19:37:00
10:53 AM,39.9,39.0,97,28.57,3.0,ESE,18.4,-,0.02,Rain,Light Rain,120,2012-12-30 19:53:00
11:53 AM,41.0,39.0,93,28.61,5.0,SSE,15.0,23.0,0.03,Rain,Light Rain,150,2012-12-30 20:53:00
12:53 PM,39.9,37.9,93,28.65,7.0,SE,17.3,25.3,0.01,Rain,Light Rain,140,2012-12-30 21:53:00
1:53 PM,39.9,37.0,89,28.70,7.0,SSE,20.7,33.4,0.00,Rain,Light Rain,150,2012-12-30 22:53:00
2:53 PM,41.0,36.0,82,28.78,7.0,SSE,12.7,21.9,0.00,Rain,Light Rain,160,2012-12-30 23:53:00
3:53 PM,39.9,35.1,83,28.85,10.0,SSE,16.1,-,0.00,Rain,Light Rain,150,2012-12-31 00:53:00
4:53 PM,39.9,34.0,79,28.92,10.0,SSE,10.4,-,0.00,Rain,Light Rain,160,2012-12-31 01:53:00
5:53 PM,39.0,34.0,82,28.99,10.0,South,4.6,20.7,0.00,,Overcast,190,2012-12-31 02:53:00
6:53 PM,39.0,34.0,82,29.06,10.0,SSE,8.1,-,0.00,Rain,Light Rain,150,2012-12-31 03:53:00
7:53 PM,39.0,34.0,82,29.12,10.0,SSE,10.4,-,0.00,Rain,Light Rain,160,2012-12-31 04:53:00
8:19 PM,37.4,33.8,87,29.14,10.0,South,6.9,-,0.00,Rain,Light Rain,170,2012-12-31 05:19:00
8:49 PM,37.4,33.8,87,29.16,10.0,SSE,11.5,-,0.01,Rain,Light Rain,150,2012-12-31 05:49:00
8:53 PM,37.9,34.0,86,29.17,10.0,SSE,12.7,-,0.01,Rain,Light Rain,150,2012-12-31 05:53:00
9:32 PM,39.2,33.8,81,29.21,10.0,South,16.1,20.7,0.00,Rain,Light Rain,180,2012-12-31 06:32:00
9:53 PM,37.0,34.0,89,29.23,10.0,South,8.1,-,0.01,Rain,Light Rain,190,2012-12-31 06:53:00
10:53 PM,37.9,35.1,89,29.29,5.0,South,8.1,-,0.03,Rain,Light Rain,190,2012-12-31 07:53:00
11:53 PM,37.9,34.0,86,29.34,5.0,SE,8.1,-,0.00,,Overcast,140,2012-12-31 08:53:00